INTELSAT 901 (IS-901) (26824 NORAD) Tracking and Keplerian Element Data

This shows tracking and keplerian element data for the satellite.

Feedback or suggestion? Click here.




ElementValue
Catalog26824
NameINTELSAT 901 (IS-901)
Epoch Orbit1684
Epoch Day286.40002035
Epoch Year2024
RAAN84.192
Inclination0.0534
Eccentricity0.0001294
Argument of Perigee192.5937
Mean Anonmoly221.2273
Mean Motion1.00270052
Decay Rate-2.02E-06
L11 26824U 01024A 24286.40002035 -.00000202 00000+0 00000+0 0 9998
L22 26824 0.0534 84.1920 0001294 192.5937 221.2273 1.00270052 16847



Live tracking and technical data element details for INTELSAT 901 (IS-901) (NORAD 26824). INTELSAT 901 (IS-901) can be tracked NOW for your location showing map with azimuth and elevation plus other details from your city location.







IsCatalogInMostPopularTable: catalog: 26824, numindb: 797
Update: records affected: 1



GetName: 26824 INTELSAT 901 (IS-901)

Hit Count: updated at: Thu, 23 Jan 2025 12:37:13 GMT